Wind_Speed
5 5 6 7 8 10 11 13 14 16 18 19 21 22 23 24 26 27 28 29 30 32 33 35 38 40 42 43 44 44 43 42 41 39 37 34 31 29 27 25 25 26 28
5 6 8 10 11 13 16 18 19 21 23 24 26 27 28 30 31 32 33 34 34 35 36 36 37 38 40 42 44 46 47 47 46 45 43 40 37 35 32 30 28 28 29
8 10 12 15 17 19 21 23 25 26 28 30 31 33 34 35 36 37 38 39 40 41 41 42 42 42 42 42 43 45 47 49 50 50 49 47 44 41 38 35 32 31 31
13 15 17 19 21 24 26 28 29 31 33 34 35 37 38 40 41 42 43 44 45 46 47 47 48 48 48 48 48 48 48 49 50 52 53 53 51 48 45 42 39 36 34
17 19 21 23 25 27 29 31 32 34 36 37 39 40 42 44 45 46 48 49 50 51 52 53 53 54 54 54 54 53 53 52 52 53 55 56 56 54 52 49 45 42 39
21 23 24 26 28 30 32 34 36 38 40 41 43 45 47 48 50 51 53 54 55 56 57 58 59 59 60 60 60 60 59 58 57 56 56 57 58 59 58 55 52 49 45
23 25 27 29 31 33 36 38 40 42 45 47 49 51 52 54 56 57 59 60 61 62 63 64 65 65 65 65 65 65 65 65 64 62 62 61 60 61 61 61 59 55 51
25 27 29 32 35 37 40 42 45 47 49 51 53 55 57 59 61 63 64 66 67 68 69 70 71 71 71 71 71 71 71 71 70 69 68 67 65 64 63 64 63 61 58
27 29 32 35 38 41 44 46 49 51 53 55 57 59 61 64 66 68 69 71 73 74 75 76 77 77 77 77 77 77 77 76 76 75 75 73 72 69 67 66 66 65 64
30 33 36 39 42 45 48 51 53 55 57 59 61 64 66 68 71 73 75 77 79 80 82 83 83 83 83 84 84 83 83 82 82 81 80 79 78 76 73 71 69 69 68
34 37 41 44 47 50 53 55 56 58 61 63 66 68 71 74 76 78 81 83 85 87 88 89 90 90 90 90 89 89 89 88 88 86 85 84 83 82 80 77 74 72 71
38 41 45 48 51 53 55 57 59 62 65 67 70 73 76 79 82 84 87 90 92 93 94 95 96 96 95 95 94 94 94 93 93 92 91 90 89 87 86 84 80 77 74
41 45 48 50 53 55 57 59 62 65 68 71 74 77 80 84 87 91 94 96 97 98 98 98 98 98 98 97 97 97 97 97 97 97 96 95 94 93 91 89 86 83 80
44 47 50 52 54 56 59 62 65 68 72 75 78 82 86 90 94 98 100 101 101 100 99 97 96 95 94 94 95 95 96 97 99 100 101 100 100 99 96 94 92 89 86
46 49 51 54 56 58 61 65 68 72 75 78 82 86 91 95 99 102 102 101 100 97 95 93 91 89 88 88 88 89 91 93 96 99 101 103 104 104 102 99 97 95 92
48 50 52 54 57 60 64 67 71 74 77 81 86 91 95 99 100 100 98 95 92 89 87 86 85 84 83 83 83 83 84 86 89 93 98 101 105 106 106 104 102 100 98
48 50 53 55 59 62 66 70 73 76 80 85 90 94 97 98 97 94 90 87 85 84 83 82 81 80 78 77 77 77 78 79 82 85 90 96 101 106 108 108 107 105 103
49 51 53 57 61 65 68 72 74 78 83 87 92 94 95 94 90 87 84 82 82 81 80 78 75 73 71 70 69 69 70 72 74 78 83 89 95 101 106 109 110 109 107
49 51 55 59 63 67 70 73 76 80 85 89 92 93 91 87 84 81 80 80 80 77 75 73 72 70 69 67 66 65 65 66 67 70 75 82 89 96 102 108 111 112 111
50 53 56 61 65 68 71 74 78 82 86 90 91 89 85 82 80 78 79 78 76 74 74 74 75 74 73 71 68 66 64 64 64 66 69 74 82 90 98 104 109 112 114
51 54 58 62 66 68 71 75 79 83 87 89 88 85 81 79 77 77 76 75 73 75 77 78 76 74 73 73 72 70 67 65 66 66 65 67 74 83 92 100 106 112 115
52 56 60 64 67 69 72 76 80 83 86 87 84 81 78 77 76 75 74 73 75 78 76 71 68 65 63 65 68 70 70 69 71 68 66 66 68 75 84 95 103 110 115
53 57 61 64 67 69 73 77 80 84 86 84 80 77 76 75 75 74 74 74 77 77 71 65 61 58 55 53 57 62 67 72 72 68 68 67 66 68 75 86 98 107 114
54 58 61 65 67 70 73 77 81 83 83 81 77 75 74 74 73 73 73 75 77 73 66 61 58 54 49 43 42 48 57 66 72 70 69 68 66 64 67 76 90 102 111
55 58 62 65 68 71 74 77 81 82 81 78 75 73 73 72 72 72 73 75 74 68 61 57 53 48 43 36 30 32 41 52 64 69 68 68 66 64 63 68 79 94 106
56 59 63 66 68 71 74 78 80 81 79 75 73 72 71 70 70 71 72 73 70 63 57 52 48 44 39 32 23 19 25 37 51 62 65 65 65 64 62 62 70 84 99
Wind_Direction
323 314 308 304 302 301 300 299 297 295 294 292 290 288 286 285 283 282 282 280 278 275 273 270 267 265 262 260 259 258 258 258 259 261 262 261 260 257 252 246 242 240 237
335 328 322 318 314 311 308 305 302 300 298 295 293 291 289 287 285 283 282 281 279 278 276 274 272 269 267 264 261 258 257 256 256 256 257 258 257 256 254 249 244 241 239
329 324 321 318 314 311 307 304 302 300 298 296 294 292 290 288 286 284 283 281 279 278 276 275 273 272 270 268 265 262 259 256 255 254 254 254 254 254 253 251 247 242 239
326 322 318 315 311 309 306 304 301 299 298 296 294 293 292 290 288 286 284 282 281 279 277 275 273 272 270 268 267 265 262 259 257 255 253 252 252 252 251 250 248 244 240
323 319 316 313 310 308 306 304 303 301 300 298 296 295 293 291 290 288 286 284 282 280 278 276 274 272 270 268 267 265 263 261 258 256 254 252 250 250 249 248 247 245 241
321 318 316 313 311 309 308 306 305 304 302 300 299 297 295 293 291 289 287 286 284 282 280 278 276 274 271 269 267 265 263 261 258 257 255 253 251 249 248 247 246 245 243
319 317 315 313 312 311 311 309 308 306 304 303 301 299 298 296 294 291 289 287 285 283 281 279 277 274 272 270 268 265 263 260 258 256 254 253 251 249 248 246 245 244 243
318 317 315 314 313 313 311 310 308 306 305 303 302 300 299 297 295 293 291 289 287 285 283 281 279 276 273 271 268 266 263 261 258 255 253 252 250 248 247 246 245 243 242
316 315 314 314 313 312 311 309 308 307 305 304 303 301 300 298 296 294 293 291 289 287 284 282 280 277 274 271 269 266 263 261 258 256 253 251 249 247 246 245 243 243 241
316 316 316 315 314 313 312 311 310 308 307 305 304 302 301 299 297 295 294 292 290 288 286 283 280 277 275 272 269 266 263 260 258 255 253 250 248 246 244 243 242 241 240
318 319 318 317 316 315 314 313 311 310 308 307 305 304 302 300 298 297 295 293 291 289 287 285 282 279 276 272 269 266 263 260 257 254 252 249 247 245 243 241 240 239 239
320 319 319 318 317 316 315 314 312 311 309 308 306 305 303 302 300 298 297 295 293 291 290 287 285 281 278 274 270 266 263 259 256 253 250 248 246 243 241 239 238 237 237
319 319 319 318 317 316 315 314 313 312 310 309 307 306 305 303 302 300 299 297 296 294 292 289 286 283 280 276 272 267 263 259 255 251 248 245 243 242 240 238 236 235 234
319 319 319 318 317 316 315 315 314 313 311 310 309 308 306 305 304 302 301 299 297 295 293 290 287 283 279 276 272 268 264 259 255 251 247 244 241 239 237 236 234 232 232
320 320 319 318 317 316 315 315 314 314 312 311 310 309 308 307 305 304 302 300 298 295 292 289 286 282 279 275 271 267 263 259 255 250 246 242 239 237 235 233 232 230 229
320 320 319 318 317 317 316 316 315 315 314 313 312 311 309 308 306 304 303 301 298 296 293 290 286 283 279 275 271 267 263 258 254 250 246 242 238 236 233 231 229 228 226
320 319 319 318 318 317 317 317 317 317 316 315 314 312 310 309 308 307 305 303 301 298 295 292 289 285 280 276 271 266 262 258 253 248 244 240 237 234 232 229 227 225 224
319 319 319 319 319 319 319 319 319 319 318 317 315 313 312 311 311 310 308 307 304 302 299 295 291 285 280 275 269 264 260 256 252 248 243 239 235 232 230 228 225 223 222
319 320 320 320 321 321 321 321 321 320 320 318 316 315 315 315 314 313 312 310 309 306 302 297 292 286 280 274 268 262 257 253 249 246 242 238 234 231 228 226 224 222 220
320 321 322 322 323 323 323 323 323 322 321 320 318 318 318 318 317 316 316 314 312 309 305 300 294 287 281 274 266 260 254 250 246 244 241 238 234 230 227 224 222 220 219
322 322 323 324 324 325 325 325 325 324 322 321 321 321 321 321 321 320 319 318 315 313 309 304 297 290 282 274 266 258 250 246 242 240 239 237 234 230 226 223 220 218 217
324 324 325 325 326 327 327 327 327 326 324 324 324 324 324 324 324 324 323 322 320 318 315 310 305 298 289 278 267 256 247 241 239 237 236 235 234 231 227 223 219 217 215
326 326 327 327 328 329 329 329 328 328 327 327 327 327 327 328 327 327 327 326 325 325 322 319 315 309 299 286 272 258 245 237 235 234 233 233 233 232 229 224 220 216 214
328 328 328 329 330 330 331 331 331 330 330 330 330 330 331 331 331 331 331 330 331 330 328 327 325 321 313 300 280 261 247 236 231 229 231 231 231 231 230 226 221 217 214
330 330 331 331 332 332 333 333 333 333 332 332 333 333 334 334 334 335 335 335 335 334 333 333 334 333 329 319 298 269 248 235 228 226 227 229 229 230 230 228 223 218 214
333 333 333 334 334 334 335 335 335 335 335 335 336 336 337 337 338 338 339 339 339 338 337 338 340 343 344 339 325 288 252 234 226 223 223 225 227 228 229 228 225 220 216
Height
5880 5878 5877 5877 5875 5874 5873 5871 5870 5868 5866 5865 5863 5861 5859 5858 5856 5854 5852 5851 5850 5849 5848 5847 5847 5846 5846 5846 5846 5847 5847 5848 5849 5850 5851 5853 5854 5856 5857 5859 5860 5862 5863
5879 5878 5877 5876 5874 5873 5871 5869 5867 5865 5863 5861 5859 5856 5855 5853 5851 5849 5847 5845 5844 5843 5841 5840 5839 5839 5839 5839 5839 5839 5840 5841 5842 5843 5844 5845 5847 5849 5851 5853 5855 5857 5858
5879 5878 5876 5874 5872 5870 5868 5865 5863 5861 5858 5856 5853 5851 5848 5846 5844 5842 5840 5838 5837 5835 5834 5833 5832 5831 5830 5830 5830 5831 5832 5833 5834 5835 5835 5837 5839 5841 5844 5846 5848 5851 5853
5877 5876 5874 5871 5869 5866 5864 5861 5858 5855 5852 5850 5847 5844 5841 5838 5836 5833 5831 5829 5827 5826 5824 5823 5822 5821 5821 5821 5821 5821 5822 5824 5825 5825 5826 5828 5830 5832 5835 5838 5840 5843 5846
5875 5873 5870 5867 5865 5862 5859 5855 5852 5849 5846 5842 5839 5836 5833 5829 5826 5823 5821 5818 5816 5814 5813 5811 5811 5810 5810 5810 5810 5810 5812 5813 5814 5815 5816 5818 5820 5822 5825 5828 5831 5835 5838
5871 5869 5866 5863 5860 5857 5853 5849 5846 5842 5838 5834 5830 5826 5823 5819 5816 5812 5809 5806 5803 5801 5799 5798 5797 5796 5796 5796 5797 5797 5799 5801 5802 5804 5805 5807 5809 5812 5814 5818 5822 5825 5829
5867 5864 5861 5858 5854 5851 5847 5843 5838 5834 5829 5825 5820 5815 5811 5807 5803 5799 5795 5792 5789 5786 5784 5782 5781 5780 5780 5780 5781 5782 5784 5786 5788 5790 5792 5794 5797 5800 5803 5807 5811 5815 5819
5863 5860 5856 5853 5849 5844 5840 5835 5831 5826 5820 5815 5810 5804 5799 5794 5788 5784 5779 5775 5772 5768 5765 5763 5761 5761 5761 5761 5762 5764 5766 5768 5771 5774 5777 5780 5783 5787 5790 5794 5799 5803 5808
5859 5855 5851 5847 5842 5838 5833 5827 5822 5816 5810 5804 5798 5792 5786 5780 5774 5768 5762 5757 5752 5748 5745 5742 5740 5739 5738 5739 5740 5742 5745 5748 5751 5755 5759 5763 5767 5772 5776 5781 5785 5790 5795
5854 5849 5844 5839 5834 5829 5823 5817 5811 5804 5798 5792 5785 5778 5771 5764 5757 5750 5744 5737 5731 5726 5722 5718 5716 5714 5714 5714 5715 5717 5721 5724 5728 5733 5738 5743 5748 5754 5760 5765 5771 5776 5782
5847 5842 5837 5831 5825 5819 5813 5806 5799 5793 5786 5778 5771 5763 5755 5747 5739 5731 5722 5715 5707 5700 5695 5690 5687 5685 5685 5685 5687 5689 5693 5697 5703 5708 5714 5720 5727 5733 5741 5748 5755 5761 5768
5841 5836 5830 5824 5817 5810 5803 5796 5788 5780 5772 5764 5756 5747 5737 5728 5718 5708 5699 5689 5681 5672 5665 5660 5655 5653 5652 5653 5654 5657 5661 5666 5673 5680 5688 5695 5702 5710 5719 5728 5737 5744 5752
5835 5829 5822 5815 5808 5801 5793 5785 5777 5768 5759 5750 5739 5729 5719 5708 5697 5685 5673 5662 5652 5643 5634 5628 5622 5618 5616 5616 5618 5621 5626 5632 5639 5648 5658 5667 5676 5684 5695 5705 5716 5725 5734
5828 5821 5814 5807 5799 5792 5784 5775 5766 5756 5746 5735 5724 5712 5699 5686 5673 5659 5646 5633 5622 5612 5603 5595 5589 5585 5581 5579 5580 5583 5588 5594 5603 5612 5624 5635 5646 5657 5668 5680 5692 5703 5714
5821 5814 5806 5799 5791 5782 5773 5764 5754 5743 5731 5719 5707 5693 5678 5664 5649 5634 5619 5606 5593 5583 5573 5565 5558 5553 5549 5547 5546 5547 5551 5557 5565 5574 5587 5600 5613 5626 5639 5652 5666 5679 5692
5813 5806 5798 5790 5782 5773 5763 5752 5741 5728 5715 5702 5688 5672 5656 5640 5624 5608 5593 5579 5567 5555 5545 5536 5528 5522 5518 5515 5514 5514 5517 5521 5529 5537 5549 5563 5577 5592 5608 5623 5638 5652 5667
5806 5799 5791 5782 5772 5762 5751 5739 5727 5714 5700 5685 5669 5652 5634 5616 5599 5583 5568 5554 5541 5529 5518 5508 5499 5493 5488 5485 5484 5484 5485 5489 5496 5503 5513 5526 5541 5557 5574 5591 5607 5624 5641
5799 5791 5782 5772 5762 5751 5739 5726 5712 5698 5683 5667 5649 5631 5611 5593 5576 5560 5545 5531 5517 5504 5492 5481 5472 5465 5460 5457 5456 5456 5457 5461 5466 5472 5481 5493 5507 5522 5539 5557 5576 5596 5614
5792 5783 5773 5763 5751 5739 5726 5712 5698 5683 5666 5648 5628 5608 5589 5571 5555 5539 5524 5509 5494 5480 5467 5456 5446 5439 5434 5431 5429 5430 5432 5436 5440 5445 5453 5463 5475 5489 5505 5524 5545 5567 5587
5784 5774 5764 5752 5740 5727 5713 5699 5683 5666 5648 5628 5608 5588 5569 5553 5536 5520 5505 5489 5473 5459 5445 5431 5420 5411 5404 5401 5402 5404 5408 5413 5417 5421 5428 5436 5446 5459 5474 5492 5514 5536 5557
5775 5765 5754 5742 5730 5716 5702 5686 5670 5651 5631 5611 5590 5570 5552 5535 5519 5503 5486 5470 5454 5438 5421 5404 5390 5379 5372 5367 5369 5374 5382 5389 5394 5398 5406 5414 5422 5432 5447 5464 5483 5505 5528
5767 5756 5745 5732 5719 5705 5690 5674 5656 5637 5617 5595 5574 5554 5536 5520 5503 5486 5469 5452 5434 5416 5397 5377 5361 5349 5340 5333 5333 5340 5351 5363 5366 5377 5386 5393 5401 5410 5423 5438 5456 5476 5499
5758 5747 5735 5722 5709 5694 5678 5661 5642 5622 5600 5580 5560 5541 5523 5506 5488 5471 5453 5435 5415 5394 5374 5357 5340 5325 5314 5308 5303 5306 5318 5331 5342 5357 5364 5373 5382 5392 5402 5415 5431 5450 5472
5750 5738 5726 5712 5698 5683 5667 5649 5630 5609 5588 5568 5548 5529 5511 5493 5475 5457 5439 5420 5399 5377 5358 5341 5324 5308 5295 5286 5281 5281 5289 5302 5318 5334 5344 5355 5365 5375 5385 5395 5409 5427 5447
5741 5729 5716 5702 5688 5672 5655 5637 5617 5596 5576 5556 5537 5519 5501 5482 5464 5445 5427 5407 5385 5365 5347 5330 5314 5299 5284 5273 5267 5266 5270 5281 5296 5313 5326 5337 5349 5359 5369 5379 5391 5407 5425
5733 5720 5707 5692 5677 5661 5644 5625 5605 5584 5564 5545 5527 5509 5492 5473 5455 5436 5417 5396 5375 5356 5339 5324 5309 5295 5281 5270 5263 5259 5262 5269 5279 5294 5309 5321 5333 5345 5355 5365 5376 5389 5405